DELTA 1 DEB

Satellite information

Favourite Embed

Satellite Type and Status

DEBRISIN ORBIT

Key statistics

Satellite DELTA 1 DEB at a glance.

Uptime

18288

Days in orbit

Revolutions

≈ 14.0

Per day

Orbit

SSO

Sun Synchronous Orbit

Inclination

99.5

Latest

Satellite identification and parameters

Extended collection of information and parameters for DELTA 1 DEB.

Object identification

Identified? True

Debris? True

Object name: DELTA 1 DEB

International designator: 1975-052JX

Object number (NORAD): 21985

Object ID (CCSDS): 21985

Country: UNITED STATES OF AMERICA (US)

Current information (Y/N): Y

RCS size: SMALL

Orbital parameters

Period: 102.766 minutes

Inclination: 99.525 deg

SMA: 7267.636 km

Apoapsis: 915.154 km

Periapsis: 863.848 km

RAAN: 37.7663 deg

Eccentricy: 0.0035298

Argument of periapsis: 33.3939 deg

Mean anomaly: 144.8833 deg

Mean motion: 14.01241541 rev/day

Mean motion (dot): 0.00004364 rev/day2

B* drag term: 0.0029157 1/REarth

Two-line elements (TLE)

Creation date: July 6, 2025, 6:26 a.m.

Reference frame: TEME

Reference center: EARTH

Epoch: July 2, 2025, 8:16 a.m. UTC

TLE line 0: 0 DELTA 1 DEB

TLE line 1: 1 21985U 75052JX 25183.34469463 .00004364 00000-0 29157-2 0 9995

TLE line 2: 2 21985 99.5250 37.7663 0035298 33.3939 144.8833 14.01241541667447

Live tracking on map

Real-time ground track for satellite DELTA 1 DEB.

In-orbit conjunctions

A list of the most updated potential collisions computed for object DELTA 1 DEB.

Target Orbit TCA Probability of collision Miss distance Type
FENGYUN 1C DEB SSO 2024-11-11 10:54:48 0.0001271309 421.0 (m) DEBRIS

Associated space launch

Experimental meteorological satellite

DELTA 1 DEB was lifted into orbit during the mission ‘Delta 2910 | Nimbus 6’, on board a Delta 2910 space rocket.

The launch took place on June 12, 1975, 8:12 a.m. from Space Launch Complex 2W.

For more information about the launch, click the button.

Launch to space Delta 2910 | Nimbus 6
Delta 2910 | Nimbus 6

Agency: N/A

Status: Launch Successful

Launch date: June 12, 1975, 8:12 a.m. UTC

Rocket: Delta 2910

Launch pad: Space Launch Complex 2W

Location: Vandenberg SFB, CA, USA

...

Latest news about this satellite

There are no fresh news available about this satellite. Check back as we update our databases every day.


Newsletter sign-up

Weekly statistics, charts and insights to help you stay on top of the space industry.